Location: Poughquag
(41.6090°N, 73.6820°W)
Time: 19:00:15
(UTC-05:00)

A-11 Canister half - Pass Details

Date: 09 December 2023
Orbit: 1526 x 1682 km, 47.3° (Epoch: 23 February)

Event Time Altitude Azimuth Distance (km) Brightness Sun altitude
Rises 17:31:29 0° 230° (SW) 4,897 13.1 -12.2°
Reaches altitude 10° 17:34:37 10° 229° (SW) 3,922 12.3 -12.7°
Maximum altitude 17:44:41 74° 147° (SSE) 1,738 9.2 -14.5°
Enters shadow 17:52:20 20° 67° (ENE) 3,197 10.0 -15.9°
